• In Lithuania
  • List of Countries
  • For 7 days
  • Water Temperature
  • Satellite Maps
  • Weather Map
  • Weather Widgets
  • user-avatar
    Login

    Hourly Weather Dinanagar

    Today, 23 September, Sunday

    Time Temperature Precipitation Wind Pressure Humidity
    00:00 +24°C° 4.3 mm 3 mps 737 mmHg 86%
    01:00 +22°C° 4.3 mm 3 mps 737 mmHg 87%
    02:00 +22°C° 4.3 mm 3 mps 736 mmHg 87%
    03:00 +22°C° 6.1 mm 3 mps 736 mmHg 88%
    04:00 +22°C° 6.1 mm 3 mps 736 mmHg 89%
    05:00 +22°C° 6.1 mm 3 mps 736 mmHg 90%
    06:00 +22°C° 3.7 mm 3 mps 737 mmHg 89%
    07:00 +24°C° 3.7 mm 3 mps 737 mmHg 88%
    08:00 +24°C° 3.7 mm 3 mps 738 mmHg 87%
    09:00 +24°C° 3.1 mm 3 mps 738 mmHg 88%
    10:00 +24°C° 3.1 mm 3 mps 738 mmHg 88%
    11:00 +24°C° 3.1 mm 3 mps 738 mmHg 88%
    12:00 +24°C° 3 mm 3 mps 738 mmHg 88%
    13:00 +24°C° 3 mm 3 mps 737 mmHg 88%
    14:00 +24°C° 3 mm 3 mps 737 mmHg 88%
    15:00 +24°C° 1.4 mm 3 mps 737 mmHg 87%
    16:00 +24°C° 1.4 mm 3 mps 737 mmHg 86%
    17:00 +24°C° 1.4 mm 3 mps 736 mmHg 86%
    18:00 +24°C° 1.4 mm 3 mps 737 mmHg 86%
    19:00 +24°C° 1.4 mm 3 mps 737 mmHg 86%
    20:00 +24°C° 1.4 mm 3 mps 737 mmHg 86%
    21:00 +24°C° 1.3 mm 3 mps 736 mmHg 86%
    22:00 +24°C° 1.3 mm 3 mps 736 mmHg 86%
    23:00 +24°C° 1.3 mm 3 mps 736 mmHg 86%

    Tomorrow, 24 September, Monday

    Time Temperature Precipitation Wind Pressure Humidity
    00:00 +24°C° 1.1 mm 3 mps 736 mmHg 85%
    01:00 +24°C° 1.1 mm 2 mps 735 mmHg 85%
    02:00 +24°C° 1.1 mm 2 mps 735 mmHg 85%
    03:00 +24°C° 1.5 mm 2 mps 735 mmHg 85%
    04:00 +24°C° 1.5 mm 2 mps 735 mmHg 86%
    05:00 +24°C° 1.5 mm 2 mps 735 mmHg 86%
    06:00 +24°C° 1.4 mm 2 mps 735 mmHg 86%
    07:00 +24°C° 1.4 mm 2 mps 735 mmHg 86%
    08:00 +24°C° 1.4 mm 2 mps 735 mmHg 85%
    09:00 +25°C° 1.3 mm 2 mps 736 mmHg 84%
    10:00 +25°C° 1.3 mm 2 mps 736 mmHg 83%
    11:00 +26°C° 1.3 mm 2 mps 736 mmHg 82%
    12:00 +26°C° 0.9 mm 2 mps 735 mmHg 81%
    13:00 +26°C° 0.9 mm 2 mps 735 mmHg 81%
    14:00 +26°C° 0.9 mm 1 mps 734 mmHg 80%
    15:00 +26°C° 0.3 mm 1 mps 734 mmHg 81%
    16:00 +26°C° 0.3 mm 1 mps 734 mmHg 83%
    17:00 +25°C° 0.3 mm 1 mps 733 mmHg 84%
    18:00 +25°C° 0.2 mm 2 mps 734 mmHg 84%
    19:00 +24°C° 0.2 mm 2 mps 734 mmHg 85%
    20:00 +24°C° 0.2 mm 2 mps 734 mmHg 85%
    21:00 +24°C° 0 mm 2 mps 734 mmHg 83%
    22:00 +24°C° 0 mm 2 mps 734 mmHg 82%
    23:00 +24°C° 0 mm 2 mps 734 mmHg 81%

    Day after tomorrow, 25 September, Tuesday

    Time Temperature Precipitation Wind Pressure Humidity
    00:00 +23°C° 0 mm 1 mps 734 mmHg 80%
    01:00 +23°C° 0 mm 1 mps 734 mmHg 79%
    02:00 +23°C° 0 mm 1 mps 734 mmHg 77%
    03:00 +23°C° 0 mm 1 mps 734 mmHg 78%
    04:00 +23°C° 0 mm 1 mps 734 mmHg 78%
    05:00 +22°C° 0 mm 1 mps 734 mmHg 78%
    06:00 +24°C° 0 mm 1 mps 734 mmHg 74%
    07:00 +25°C° 0 mm 1 mps 735 mmHg 71%
    08:00 +24°C° 0 mm 0 mps 735 mmHg 67%
    09:00 +28°C° 0 mm 1 mps 735 mmHg 64%
    10:00 +29°C° 0 mm 1 mps 735 mmHg 61%
    11:00 +31°C° 0 mm 2 mps 735 mmHg 58%
    12:00 +32°C° 0 mm 2 mps 735 mmHg 56%
    13:00 +32°C° 0 mm 2 mps 735 mmHg 54%
    14:00 +34°C° 0 mm 2 mps 734 mmHg 52%
    15:00 +34°C° 0 mm 2 mps 734 mmHg 56%
    16:00 +32°C° 0 mm 1 mps 734 mmHg 59%
    17:00 +32°C° 0 mm 1 mps 734 mmHg 62%
    18:00 +30°C° 0 mm 1 mps 734 mmHg 65%
    19:00 +29°C° 0 mm 1 mps 735 mmHg 67%
    20:00 +27°C° 0 mm 2 mps 735 mmHg 69%
    21:00 +27°C° 0 mm 1 mps 735 mmHg 70%
    22:00 +26°C° 0 mm 1 mps 735 mmHg 70%
    23:00 +26°C° 0 mm 1 mps 735 mmHg 70%

    26 September, Wednesday

    Time Temperature Precipitation Wind Pressure Humidity
    00:00 +26°C° 0 mm 1 mps 735 mmHg 69%
    01:00 +25°C° 0 mm 1 mps 734 mmHg 68%
    02:00 +25°C° 0 mm 1 mps 734 mmHg 68%
    03:00 +25°C° 0 mm 1 mps 734 mmHg 66%
    04:00 +25°C° 0 mm 1 mps 734 mmHg 65%
    05:00 +24°C° 0 mm 1 mps 734 mmHg 64%
    06:00 +26°C° 0 mm 1 mps 734 mmHg 62%
    07:00 +27°C° 0 mm 1 mps 734 mmHg 60%
    08:00 +28°C° 0 mm 1 mps 734 mmHg 58%
    09:00 +30°C° 0 mm 1 mps 734 mmHg 55%
    10:00 +31°C° 0 mm 1 mps 734 mmHg 53%
    11:00 +32°C° 0 mm 1 mps 734 mmHg 50%
    12:00 +33°C° 0 mm 1 mps 734 mmHg 49%
    13:00 +34°C° 0 mm 1 mps 734 mmHg 47%
    14:00 +34°C° 0 mm 1 mps 733 mmHg 46%
    15:00 +34°C° 0 mm 1 mps 733 mmHg 49%
    16:00 +33°C° 0 mm 1 mps 733 mmHg 53%
    17:00 +32°C° 0 mm 1 mps 733 mmHg 57%
    18:00 +31°C° 0 mm 1 mps 734 mmHg 58%
    19:00 +29°C° 0 mm 2 mps 734 mmHg 60%
    20:00 +28°C° 0 mm 2 mps 735 mmHg 61%
    21:00 +27°C° 0 mm 2 mps 735 mmHg 61%
    22:00 +27°C° 0 mm 2 mps 735 mmHg 61%
    23:00 +26°C° 0 mm 2 mps 735 mmHg 60%

    27 September, Thursday

    Time Temperature Precipitation Wind Pressure Humidity
    00:00 +26°C° 0 mm 2 mps 735 mmHg 59%
    01:00 +26°C° 0 mm 2 mps 734 mmHg 57%
    02:00 +25°C° 0 mm 1 mps 734 mmHg 55%
    03:00 +25°C° 0 mm 1 mps 734 mmHg 54%
    04:00 +25°C° 0 mm 2 mps 734 mmHg 52%
    05:00 +24°C° 0 mm 2 mps 734 mmHg 50%
    06:00 +26°C° 0 mm 1 mps 735 mmHg 49%
    07:00 +27°C° 0 mm 1 mps 735 mmHg 48%
    08:00 +28°C° 0 mm 1 mps 735 mmHg 47%
    09:00 +30°C° 0 mm 1 mps 735 mmHg 43%
    10:00 +32°C° 0 mm 1 mps 735 mmHg 40%
    11:00 +34°C° 0 mm 1 mps 736 mmHg 36%
    12:00 +34°C° 0 mm 1 mps 735 mmHg 35%
    13:00 +35°C° 0 mm 1 mps 735 mmHg 34%
    14:00 +34°C° 0 mm 0 mps 734 mmHg 34%
    15:00 +33°C° 0 mm 0 mps 734 mmHg 38%
    16:00 +32°C° 0 mm 0 mps 735 mmHg 42%
    17:00 +31°C° 0 mm 0 mps 735 mmHg 47%
    18:00 +31°C° 0 mm 1 mps 735 mmHg 47%
    19:00 +30°C° 0 mm 2 mps 735 mmHg 47%
    20:00 +28°C° 0 mm 2 mps 736 mmHg 47%
    21:00 +27°C° 0 mm 2 mps 736 mmHg 46%
    22:00 +27°C° 0 mm 2 mps 736 mmHg 46%
    23:00 +26°C° 0 mm 2 mps 736 mmHg 46%

    28 September, Friday

    Time Temperature Precipitation Wind Pressure Humidity
    00:00 +26°C° 0 mm 2 mps 736 mmHg 45%
    01:00 +26°C° 0 mm 2 mps 736 mmHg 44%
    02:00 +25°C° 0 mm 2 mps 735 mmHg 43%
    03:00 +25°C° 0 mm 2 mps 735 mmHg 41%
    04:00 +25°C° 0 mm 2 mps 735 mmHg 40%
    05:00 +25°C° 0 mm 2 mps 735 mmHg 38%
    06:00 +26°C° 0 mm 2 mps 736 mmHg 40%
    07:00 +27°C° 0 mm 2 mps 736 mmHg 41%
    08:00 +28°C° 0 mm 2 mps 736 mmHg 43%
    09:00 +30°C° 0 mm 2 mps 736 mmHg 38%
    10:00 +32°C° 0 mm 1 mps 736 mmHg 34%
    11:00 +34°C° 0 mm 1 mps 736 mmHg 29%
    12:00 +34°C° 0 mm 1 mps 736 mmHg 29%
    13:00 +35°C° 0 mm 1 mps 735 mmHg 28%
    14:00 +36°C° 0 mm 1 mps 735 mmHg 28%
    15:00 +35°C° 0 mm 1 mps 735 mmHg 33%
    16:00 +34°C° 0 mm 1 mps 735 mmHg 37%
    17:00 +31°C° 0 mm 0 mps 735 mmHg 42%
    18:00 +31°C° 0 mm 1 mps 736 mmHg 41%
    19:00 +29°C° 0 mm 1 mps 736 mmHg 41%
    20:00 +28°C° 0 mm 1 mps 737 mmHg 40%
    21:00 +27°C° 0 mm 2 mps 737 mmHg 40%
    22:00 +27°C° 0 mm 2 mps 737 mmHg 41%
    23:00 +26°C° 0 mm 2 mps 736 mmHg 41%
    Show more